APRIZESAT 7

导读

APRIZESAT 7是一颗由美国发射的人造卫星,于当地时间2013年11月21日08:00发射升空。作为美国航天领域小卫星项目的组成部分,该卫星归入商业实验卫星范畴,主要承担空间技术验证与相关科学观测任务,依托低轨轨道运行,为美国后续航天技术迭代和小卫星应用积累了实际飞行数据。

基本信息
目录编号:
39416
目录名称:
APRIZESAT 7
国际标识:
2013-066A
轨道中心:
EARTH
卫星名称:
APRIZESAT 7
卫星全名:
--
卫星状态:
在轨 (已飞行4677 天)
发射日期:
2013-11-21 UTC
国别 :
美国 (US)
星等 :
--
该卫星已列入 空间交会检测服务 Space Conjunction Data Service (SCDS) ,当前飞行风险评估等级: 高风险
轨道信息
数据来源 国际轨道数据
星历时间: 2026-09-11T14:52:04+0800
11小时前
查看轨道信息
半长轴: 6970.645km
偏心率: 0.0034221
轨道倾角: 97.779°
近地点辐角 286.802°
升交点赤经 206.312°
平近点角 72.945°
近地点: 568.653km
远地点: 616.363km
周期: 96.532分钟
每日圈数: 14.917409
详细信息
使用方式:
暂无
2D轨道图
3D轨道图
轨道高度分析图
轨道倾角分析图
轨道综合分析图
查看轨道综合分析图
交会数据列表
事件ID 空间交会对象 最接近时刻(TCA) 交会距离 交会风险概率(CRP) 交会风险指数(CRI) 操作
CDM_260913-115703-941605-630824
POEM 2 (56308)
2026-09-13T
11:57:31+0000
2.757 km
极远距离
1.322638E-6 低风险 0.37
与全量物体交会距离演化趋势
与全量物体交会风险概率演化趋势